TimeCDT,TemperatureF,Dew PointF,Humidity,Sea Level PressureIn,VisibilityMPH,Wind Direction,Wind SpeedMPH,Gust SpeedMPH,PrecipitationIn,Events,Conditions,WindDirDegrees,DateUTC
12:56 AM,75.0,64.9,71,30.03,-9999.0,SSE,5.8,-,N/A,,Unknown,150,2013-08-27 05:56:00
1:56 AM,73.9,64.9,73,30.02,-9999.0,SSE,4.6,-,N/A,,Unknown,150,2013-08-27 06:56:00
2:56 AM,73.0,64.9,76,30.02,-9999.0,SE,4.6,-,N/A,,Unknown,140,2013-08-27 07:56:00
3:56 AM,73.0,64.9,76,30.02,-9999.0,SE,6.9,-,N/A,,Unknown,130,2013-08-27 08:56:00
4:56 AM,71.1,64.9,81,30.03,-9999.0,ESE,4.6,-,N/A,,Unknown,120,2013-08-27 09:56:00
5:56 AM,70.0,64.9,84,30.04,-9999.0,SSE,4.6,-,N/A,,Unknown,160,2013-08-27 10:56:00
6:56 AM,69.1,64.0,84,30.04,-9999.0,SSE,5.8,-,N/A,,Unknown,150,2013-08-27 11:56:00
7:56 AM,70.0,64.0,81,30.04,-9999.0,SE,4.6,-,N/A,,Unknown,140,2013-08-27 12:56:00
8:56 AM,73.9,64.0,71,30.04,-9999.0,South,8.1,-,N/A,,Unknown,180,2013-08-27 13:56:00
9:56 AM,80.1,64.0,58,30.04,-9999.0,SSW,8.1,-,N/A,,Unknown,210,2013-08-27 14:56:00
10:56 AM,84.9,64.0,49,30.04,-9999.0,SSW,10.4,-,N/A,,Unknown,210,2013-08-27 15:56:00
11:56 AM,89.1,63.0,42,30.03,-9999.0,SSW,11.5,-,N/A,,Unknown,200,2013-08-27 16:56:00
12:56 PM,91.0,60.1,35,30.01,-9999.0,SSW,15.0,19.6,N/A,,Unknown,210,2013-08-27 17:56:00
1:56 PM,91.9,57.9,32,29.99,-9999.0,SSW,12.7,-,N/A,,Unknown,200,2013-08-27 18:56:00
2:56 PM,93.0,57.9,31,29.98,-9999.0,South,12.7,21.9,N/A,,Unknown,190,2013-08-27 19:56:00
3:56 PM,91.9,57.0,31,29.96,-9999.0,SW,13.8,24.2,N/A,,Unknown,220,2013-08-27 20:56:00
4:56 PM,91.0,57.9,33,29.96,-9999.0,South,15.0,20.7,N/A,,Unknown,190,2013-08-27 21:56:00
5:56 PM,90.0,57.9,34,29.95,-9999.0,SSW,9.2,20.7,N/A,,Unknown,200,2013-08-27 22:56:00
6:56 PM,88.0,60.1,39,29.96,-9999.0,SSW,10.4,-,N/A,,Unknown,200,2013-08-27 23:56:00
7:56 PM,84.0,61.0,46,29.96,-9999.0,SSE,6.9,-,N/A,,Unknown,160,2013-08-28 00:56:00
8:56 PM,81.0,61.0,50,29.97,-9999.0,South,6.9,-,N/A,,Unknown,170,2013-08-28 01:56:00
9:56 PM,80.1,61.0,52,29.98,-9999.0,South,6.9,-,N/A,,Unknown,170,2013-08-28 02:56:00
10:56 PM,78.1,64.0,62,29.98,-9999.0,South,9.2,-,N/A,,Unknown,170,2013-08-28 03:56:00
11:56 PM,75.0,64.9,71,29.99,-9999.0,SE,6.9,-,N/A,,Unknown,140,2013-08-28 04:56:00